Theta_e
314 314 315 316 315 313 312 312 311 311 312 312 311 311 308 307 307 311 310 314 312 316 317 322 325 322 320 322 338 350 358 358 356 357 357 353 351 349 348 349 348 348 345 346 347
311 312 312 313 313 313 313 312 312 310 308 307 307 307 307 307 311 314 314 315 311 314 314 317 325 320 321 324 328 349 357 356 352 352 354 352 354 351 351 352 351 349 345 345 345
309 309 309 310 311 312 312 312 312 311 310 307 306 306 307 310 316 314 322 316 313 312 315 318 321 325 327 327 331 346 357 354 352 351 350 352 353 347 351 353 349 350 346 344 344
309 309 308 309 309 309 310 311 312 311 312 308 305 306 307 314 320 322 319 320 313 315 314 313 319 326 328 331 330 356 355 351 353 350 352 355 351 348 349 351 346 346 344 344 344
309 309 309 308 308 309 310 310 311 311 314 308 305 307 312 314 314 319 320 317 314 317 314 313 324 326 329 327 349 353 355 352 354 350 352 353 354 352 348 348 346 345 344 344 344
309 309 309 308 308 308 310 311 311 312 314 308 306 310 316 315 318 322 322 316 316 317 311 313 321 321 326 347 343 354 353 352 352 352 351 353 354 351 348 347 348 347 345 344 344
309 309 309 309 308 309 311 311 311 311 312 307 308 314 313 311 322 319 321 318 318 316 310 310 313 317 323 350 349 351 355 353 351 352 354 354 359 355 349 348 350 348 346 345 344
309 309 309 308 309 310 312 312 312 312 310 307 311 317 314 315 318 321 320 321 320 317 315 312 314 315 322 345 351 354 351 355 352 353 352 352 362 354 350 350 350 349 349 347 345
309 309 309 309 310 312 313 312 312 317 312 313 319 317 320 321 321 320 321 319 316 316 313 311 313 314 332 347 345 344 355 356 356 352 352 352 354 352 350 350 350 349 348 348 346
310 309 310 311 312 313 313 314 320 318 320 319 318 317 318 321 321 316 320 317 313 311 313 312 313 316 316 331 329 344 352 356 357 355 353 354 351 353 351 351 350 349 348 346 346
309 310 312 313 314 314 315 314 312 315 322 320 319 321 321 322 319 316 319 318 315 315 316 316 318 319 320 321 330 341 349 355 356 352 354 353 355 354 351 351 349 348 346 344 346
310 311 312 314 315 315 317 312 316 317 317 318 321 321 322 323 321 318 319 319 318 318 317 316 320 319 320 320 323 325 346 355 352 350 350 354 354 353 351 351 346 347 345 344 344
310 311 313 315 315 318 315 318 317 317 317 318 321 323 322 321 319 319 318 317 317 317 317 319 321 320 322 325 334 333 345 353 351 349 346 351 350 355 352 350 346 340 344 344 344
310 311 313 315 315 314 316 317 317 317 317 320 322 322 318 317 319 318 316 316 316 319 316 316 316 319 320 322 334 338 345 345 349 346 348 350 357 351 354 352 347 344 342 344 344
310 311 314 315 315 315 316 317 318 316 320 322 321 319 316 319 319 318 316 316 316 317 316 317 317 317 318 318 324 332 344 345 347 353 352 352 355 347 353 355 351 344 341 343 344
310 312 315 316 316 317 318 317 318 315 320 319 320 320 320 318 319 317 317 315 316 317 316 315 317 315 320 336 330 346 348 346 344 350 353 349 351 349 354 353 351 344 342 341 343
310 315 317 315 315 317 316 316 315 314 316 316 315 315 319 319 320 320 318 317 316 318 317 316 319 339 340 344 342 336 335 342 343 350 355 348 355 352 345 346 350 346 342 340 342
312 318 318 316 316 316 318 313 316 320 316 313 315 320 320 320 318 319 318 319 316 316 315 317 317 342 333 341 344 335 329 336 346 351 350 351 353 347 342 342 344 344 341 340 341
314 318 316 318 321 317 315 319 316 316 315 315 317 320 322 324 322 321 321 322 320 317 323 320 321 318 321 336 337 338 340 335 347 347 351 351 348 343 341 341 342 342 341 341 340
315 319 316 319 319 318 316 320 322 320 315 316 318 318 323 325 325 324 325 323 323 321 318 320 324 321 321 329 334 333 331 340 339 353 353 351 348 349 345 346 343 343 342 341 340
318 313 317 319 320 314 318 318 321 319 315 318 318 319 319 325 325 326 326 325 322 321 320 320 320 323 321 321 324 321 325 324 332 337 348 352 349 343 341 349 350 349 345 340 340
310 316 318 320 319 309 317 318 319 320 314 316 317 318 319 325 326 324 324 324 324 321 324 319 317 322 324 321 319 320 322 319 325 326 337 343 332 344 346 348 348 344 341 339 341
309 311 319 318 317 315 312 315 318 316 314 315 316 317 322 325 326 327 328 325 323 327 326 322 317 321 321 323 324 332 338 333 314 317 329 327 325 344 343 344 344 343 342 342 342
311 315 314 311 309 316 319 319 316 314 315 314 316 316 323 326 323 326 322 324 322 326 329 320 314 319 322 323 326 339 339 341 319 319 318 320 345 349 345 345 345 344 343 343 341
310 313 315 321 320 322 318 315 317 315 315 315 315 319 321 326 326 322 320 321 322 322 321 320 324 323 321 320 335 338 339 345 348 346 325 332 346 348 344 342 341 339 343 346 344
313 323 319 321 320 321 316 323 316 315 314 315 313 316 320 322 321 320 320 320 321 321 321 320 326 326 331 333 335 337 336 342 344 343 347 346 347 343 337 337 341 343 343 344 346
311 315 319 321 322 324 325 327 326 315 316 314 313 318 318 319 318 316 315 314 318 322 319 321 320 324 327 329 332 331 335 336 344 340 341 344 341 339 341 342 342 341 339 344 348
Wind_Speed
11 10 10 10 9 10 9 9 9 9 10 10 10 11 11 12 12 6 6 6 4 7 8 7 4 5 3 2 3 2 3 3 6 7 6 5 3 3 7 8 2 2 8 13 24
13 12 12 11 10 10 10 10 10 10 10 10 10 10 10 12 10 8 9 6 6 11 5 7 4 6 3 1 1 2 2 6 2 6 6 6 2 6 6 4 7 12 15 22 25
15 14 14 13 12 11 11 11 11 11 10 9 8 8 8 9 3 5 3 13 13 8 5 5 5 3 2 0 2 3 2 5 9 7 8 5 5 1 13 3 8 18 15 18 21
14 15 15 14 13 14 13 12 13 12 10 10 7 7 7 3 4 2 6 7 14 10 6 6 2 3 3 2 2 2 1 5 7 9 5 3 6 5 3 4 14 18 22 20 15
13 14 15 15 14 13 13 14 13 12 10 8 6 6 3 2 6 7 6 14 16 9 4 3 2 3 3 2 1 3 3 2 4 7 12 3 6 5 1 14 13 16 18 15 13
13 14 16 16 16 14 15 15 13 12 9 7 3 4 2 1 5 3 4 17 10 9 5 3 4 1 1 2 2 3 9 5 8 8 9 6 5 4 7 14 14 17 15 13 14
13 15 16 17 18 18 16 15 14 10 6 4 2 3 1 5 5 6 7 7 6 6 4 5 2 5 3 2 1 5 5 3 8 3 5 10 11 12 9 17 16 15 13 11 13
14 16 18 19 19 19 18 16 13 7 3 2 2 1 5 2 5 7 6 1 2 7 4 1 6 2 1 1 4 3 3 3 4 3 3 3 5 8 8 18 18 15 13 12 11
15 17 20 20 20 20 17 14 6 1 2 2 2 1 4 2 6 7 8 5 7 6 5 2 5 3 2 3 4 5 2 3 2 5 3 3 4 3 6 16 15 15 13 13 10
17 19 20 21 21 20 16 6 4 4 3 1 2 2 3 3 2 2 9 10 4 4 3 2 4 3 3 4 2 2 3 4 4 6 4 1 5 8 7 7 14 16 14 10 11
18 19 21 21 20 18 11 2 4 2 2 4 3 4 5 7 1 3 7 7 3 4 3 2 4 5 5 5 4 4 4 6 4 6 7 4 3 7 12 5 11 13 13 12 14
18 19 21 21 18 12 6 3 3 1 7 4 3 6 8 4 3 3 12 4 2 3 3 6 2 5 3 4 2 3 6 3 2 3 3 4 3 4 11 5 6 16 13 16 8
19 21 22 20 15 3 6 2 0 7 1 6 4 4 2 7 3 2 5 3 4 3 3 5 2 7 3 3 5 3 5 4 4 3 2 4 2 5 6 4 7 6 16 14 17
20 21 21 19 3 8 4 6 17 6 5 6 2 3 3 2 1 2 3 4 4 3 3 2 2 3 3 3 5 4 5 9 10 2 1 5 4 4 9 10 7 6 10 14 16
21 21 19 15 9 3 2 18 3 3 4 4 3 1 0 4 1 4 0 4 2 2 5 6 3 4 3 7 8 4 9 8 3 4 2 3 3 5 9 9 12 8 10 13 15
22 22 17 7 6 6 8 13 2 5 3 6 1 1 2 3 3 2 3 5 1 2 1 7 2 4 5 1 6 12 8 7 5 3 2 1 7 4 6 16 20 6 9 12 12
24 19 14 6 3 5 11 3 5 5 3 7 3 4 1 4 3 2 2 2 1 4 5 5 2 1 5 8 7 6 6 3 3 2 0 4 3 9 9 7 20 16 13 11 14
21 15 9 12 6 3 3 5 5 1 5 4 4 3 4 1 4 2 3 2 1 3 2 2 4 7 6 7 8 6 6 5 6 5 3 2 5 5 4 5 16 17 15 13 14
17 7 6 2 3 5 5 4 6 4 4 5 2 6 7 5 4 4 4 1 1 3 3 2 4 4 5 4 10 5 4 4 6 3 3 1 5 6 7 13 8 16 16 17 15
12 4 3 3 10 4 4 3 3 4 3 3 3 2 3 6 4 3 4 4 4 3 3 3 2 3 5 3 2 7 6 1 2 4 2 3 3 5 10 13 8 13 19 19 18
4 3 5 10 2 5 3 5 5 6 4 2 2 2 1 1 3 2 1 2 4 5 4 2 2 6 2 4 2 1 1 2 3 3 5 3 5 4 4 10 9 10 13 16 16
4 2 7 6 3 1 2 5 4 4 2 1 3 3 2 2 3 2 1 3 5 2 2 1 4 2 4 3 4 1 1 4 4 3 2 3 4 7 7 2 3 0 6 8 14
2 2 2 4 2 2 4 4 6 4 3 1 2 1 2 4 3 1 2 3 4 2 2 2 1 3 6 6 3 5 3 1 2 3 5 4 4 4 5 6 5 2 3 5 10
2 1 3 3 0 4 1 4 2 3 3 4 3 3 3 2 3 3 2 2 4 3 8 5 2 5 5 5 2 1 4 2 2 3 3 3 2 2 5 5 6 5 5 1 8
2 1 2 1 2 1 1 2 2 3 2 3 2 3 6 4 1 2 1 4 4 7 3 4 1 2 5 4 1 1 1 4 2 2 4 2 3 3 3 4 4 4 5 3 4
2 2 3 2 2 1 1 1 3 3 6 3 6 5 4 6 7 8 4 3 5 2 2 2 1 2 2 2 5 1 1 6 4 3 4 3 2 1 3 2 5 7 6 4 4
4 1 2 3 2 2 3 2 5 5 2 5 9 5 5 5 6 1 3 4 1 2 1 1 3 2 4 3 5 5 2 1 4 1 3 3 3 3 3 3 4 5 6 6 4
Wind_Direction
10 7 4 2 356 353 348 339 331 330 322 322 322 325 326 325 319 287 244 226 178 154 134 129 155 150 119 88 128 255 80 145 159 136 170 233 133 175 99 130 64 106 122 132 150
18 14 11 7 359 355 351 350 350 346 338 330 329 332 334 327 321 260 256 216 178 170 164 152 147 145 68 85 142 132 146 185 118 147 177 173 237 150 131 99 99 91 96 131 141
17 16 14 9 2 357 354 351 346 341 344 335 335 336 333 334 300 247 340 204 187 183 125 123 128 115 108 182 179 174 218 148 166 150 156 221 231 160 131 110 175 143 139 144 146
14 14 10 6 4 1 354 348 347 342 335 344 343 342 335 346 125 358 348 190 173 160 129 122 66 87 106 207 218 182 123 165 143 164 119 127 336 134 166 155 151 148 152 151 156
8 7 1 358 356 354 352 344 341 337 338 345 353 353 8 317 259 336 343 158 165 156 111 106 103 131 145 247 278 160 94 63 47 150 114 56 265 20 189 131 141 141 149 157 159
2 358 353 350 349 346 348 343 335 329 333 350 7 21 16 16 325 23 80 153 170 152 117 142 171 294 358 32 65 89 90 52 60 141 130 159 209 81 258 135 143 152 160 163 167
354 349 346 345 345 344 344 336 327 321 327 4 62 30 43 227 101 96 99 154 165 168 133 193 150 51 352 79 124 144 93 64 40 6 99 156 140 200 179 152 155 165 163 169 176
349 344 342 340 339 338 339 333 318 313 316 53 74 0 246 188 230 249 203 150 165 201 192 168 173 42 86 342 37 38 77 88 9 351 49 174 137 193 176 161 163 169 167 176 181
348 345 342 339 336 336 340 330 319 249 109 86 40 39 293 246 261 269 208 118 116 165 210 97 135 96 54 91 35 13 87 61 99 353 116 68 136 189 232 174 167 173 178 183 172
348 345 344 340 335 338 341 14 78 100 101 353 279 7 310 287 254 181 171 137 115 97 35 71 57 80 44 70 188 165 108 76 52 16 61 48 174 190 207 200 180 181 186 182 172
346 344 344 340 336 336 352 66 4 3 145 225 237 247 283 315 220 127 149 131 112 79 118 12 89 198 180 190 141 124 92 87 77 32 20 360 155 193 206 231 204 187 183 190 194
345 341 340 340 334 343 25 69 135 122 313 246 251 278 270 257 16 82 148 104 140 109 107 33 231 217 164 169 152 124 123 100 105 124 116 272 235 175 202 249 265 194 185 197 170
342 338 338 339 335 27 342 87 128 310 170 301 202 229 225 149 165 171 129 129 122 115 94 136 224 122 157 154 152 197 138 165 146 218 156 298 273 162 202 197 268 203 192 187 184
337 335 335 339 2 336 311 346 322 167 59 302 325 313 112 119 21 172 118 132 41 145 140 218 285 194 162 190 145 215 196 122 134 129 84 78 300 213 183 205 224 209 194 197 192
332 328 328 328 305 280 326 340 54 113 56 292 296 118 327 118 208 14 112 42 129 120 83 259 234 185 187 209 162 171 115 108 118 83 57 85 307 268 166 209 223 213 200 199 190
330 322 318 315 277 274 319 341 94 39 13 340 301 357 65 10 39 89 57 51 42 134 328 242 253 170 192 359 147 120 91 52 65 51 71 242 200 270 184 214 205 204 211 194 184
327 314 300 258 246 303 335 35 35 93 332 313 303 21 61 25 32 69 111 46 106 24 359 323 259 64 113 78 4 87 84 46 24 42 231 286 225 266 272 198 199 203 204 194 188
327 311 284 255 256 301 23 56 72 263 263 303 355 36 89 84 9 55 70 39 118 117 114 75 324 167 169 172 177 180 136 156 165 188 208 78 228 250 239 190 199 202 187 191 191
326 312 280 291 232 191 77 63 196 206 276 327 22 53 2 9 102 70 11 184 257 200 139 89 290 282 225 150 142 213 216 201 112 320 112 243 296 301 247 265 200 189 181 189 191
329 314 283 316 133 105 75 212 224 209 302 58 90 45 44 342 55 51 14 314 336 49 104 214 325 260 288 114 350 151 164 144 18 134 200 243 270 274 225 225 232 192 199 200 189
352 48 6 146 80 53 138 225 257 247 231 115 150 91 75 79 68 57 330 294 344 340 89 117 99 291 347 13 209 72 170 20 125 129 163 180 249 312 258 217 203 206 225 208 183
9 66 2 140 54 16 158 198 248 302 69 65 87 113 120 107 73 92 183 230 338 320 38 41 137 272 226 275 265 95 85 154 142 221 238 178 279 347 343 29 104 259 210 185 178
49 261 177 340 141 270 282 261 222 214 204 125 121 65 42 126 106 105 309 284 1 75 41 176 12 6 354 355 7 58 352 41 98 69 198 153 277 2 345 32 41 75 121 146 159
65 36 333 49 115 147 237 273 239 189 112 88 105 102 104 76 22 142 333 300 337 50 56 92 129 155 199 230 193 81 352 12 140 134 172 231 155 313 343 7 17 16 360 155 142
41 260 182 246 281 145 219 299 239 155 100 117 81 175 155 137 86 159 254 329 348 346 57 88 226 241 264 249 142 129 291 5 85 161 188 33 126 234 287 321 341 337 2 21 161
78 28 349 244 303 20 89 257 212 220 147 185 150 191 153 153 182 204 174 197 233 341 62 16 229 328 280 351 213 186 194 122 48 331 263 136 126 23 320 347 6 8 5 26 12
1 339 122 282 337 109 221 219 262 159 209 179 154 128 138 193 184 182 147 87 55 205 155 94 120 73 269 10 334 297 310 10 142 204 268 221 196 157 116 68 5 354 17 22 41